This is the latest recevied weather packets stored in our database for station/object N1SU-13. If no packets are shown the sender has not sent any weather packets the latest 10 day(s).
| Time | Temp. | Humidity | Pressure | Rain* | Wind** | Luminosity | Snow |
|---|---|---|---|---|---|---|---|
| 1777972511 | 12.78° C | 82% | 1011.5 hPa | - | - | - | - |
| 1777972385 | 12.78° C | 81% | 1011.4 hPa | - | - | - | - |
| 1777971852 | 12.78° C | 81% | 1011.3 hPa | - | - | - | - |
| 1777971253 | 13.33° C | 81% | 1011.3 hPa | - | - | - | - |
| 1777970630 | 13.33° C | 80% | 1011.1 hPa | - | - | - | - |
| 1777969935 | 13.33° C | 80% | 1011.2 hPa | - | - | - | - |
| 1777969276 | 13.33° C | 80% | 1011.1 hPa | - | - | - | - |
| 1777968590 | 13.89° C | 79% | 1011 hPa | - | - | - | - |
| 1777967981 | 13.89° C | 78% | 1010.9 hPa | - | - | - | - |
| 1777967404 | 13.89° C | 77% | 1010.8 hPa | - | - | - | - |
| 1777966741 | 13.89° C | 78% | 1010.7 hPa | - | - | - | - |
| 1777966118 | 14.44° C | 77% | 1010.6 hPa | - | - | - | - |
| 1777965438 | 15° C | 76% | 1010.4 hPa | - | - | - | - |
| 1777964864 | 15° C | 75% | 1010.3 hPa | - | - | - | - |
| 1777964219 | 15° C | 74% | 1010.3 hPa | - | - | - | - |
| 1777963563 | 15.56° C | 73% | 1010.1 hPa | - | - | - | - |
| 1777962911 | 16.11° C | 71% | 1010 hPa | - | - | - | - |
| 1777962224 | 16.11° C | 70% | 1009.9 hPa | - | - | - | - |
| 1777961630 | 16.67° C | 70% | 1009.7 hPa | - | - | - | - |
| 1777960960 | 16.67° C | 68% | 1009.7 hPa | - | - | - | - |
| 1777960322 | 17.22° C | 67% | 1009.8 hPa | - | - | - | - |
| 1777959757 | 17.22° C | 67% | 1009.5 hPa | - | - | - | - |
| 1777959154 | 17.78° C | 66% | 1009.4 hPa | - | - | - | - |
| 1777958535 | 17.78° C | 65% | 1009.4 hPa | - | - | - | - |
| 1777957843 | 18.33° C | 64% | 1009.4 hPa | - | - | - | - |
* Rain since midnight (hover to see other rain measurements)
** Current wind speed in m/s (hover to see current wind gust speed)